Location: Bosque Trail
(31.8896°N, 97.7061°W)
Time: 08:43:26
(UTC+00:00)

Daily predictions for brighter satellites

Satellite Brightness Start Highest point End
(mag) Time Altitude Azimuth Time Altitude Azimuth Time Altitude Azimuth
NOSS 3-1 (C) 2.6 12:00:33 13° SW 12:04:29 65° WNW 12:09:25 10° NNE
Cosmos 1980 Rocket 2.1 12:02:14 10° SSW 12:07:45 66° WNW 12:13:18 10° NNE
Exosat Rocket 4.0 12:03:03 10° NNW 12:08:20 63° ENE 12:13:17 10° SSE
NOSS 3-1 (A) 4.2 12:04:53 10° S 12:08:56 38° ESE 12:13:24 10° NE
COSMOS 2455 3.2 12:07:32 10° SW 12:13:11 42° WNW 12:18:53 10° N
Cosmos 1674 Rocket 3.5 12:08:56 10° N 12:13:22 86° W 12:17:44 10° S
IRS-1D 3.9 12:08:52 10° N 12:13:43 41° WNW 12:18:28 10° SW
USA 215 4.2 12:09:20 10° ESE 12:15:31 45° NE 12:21:42 10° NNW
SL-8 R/B 4.4 12:14:55 21° W 12:17:22 36° SW 12:21:38 10° SSE
Cosmos 1697 Rocket 3.9 12:18:26 18° W 12:20:20 21° WNW 12:24:31 10° NNW
Cosmos 1503 Rocket 4.0 12:16:16 10° SSW 12:21:17 54° WNW 12:26:21 10° N
Cosmos 2084 3.3 12:20:06 10° NNW 12:24:10 83° ENE 12:28:11 10° SSE
SKYMED 2 4.0 12:20:32 10° SSW 12:24:35 39° W 12:28:40 10° NNW
Cosmos 1484 Rocket 2.5 12:23:55 10° NNE 12:27:25 89° ESE 12:30:54 10° SSW
Cosmos 2297 Rocket 3.0 12:23:58 10° NW 12:28:48 30° WSW 12:33:35 10° SSW
COSMO-SKYMED 1 2.4 12:27:51 10° S 12:31:53 58° W 12:35:56 10° NNW
IGS 5A 3.4 12:28:57 10° N 12:32:49 53° WNW 12:36:40 10° SSW
Cosmos 1570 Rocket 4.2 12:30:15 10° NNW 12:35:14 48° WSW 12:40:12 10° S
Aurora 2 Rocket 4.4 12:30:49 10° WSW 12:36:55 50° S 12:45:03 10° ESE
Landsat 7 4.0 12:41:48 10° NNE 12:46:28 78° ESE 12:51:06 10° S
Cosmos 1782 Rocket 3.5 12:43:30 10° SSW 12:47:50 69° W 12:52:15 10° N
Cosmos 1908 Rocket 4.3 12:45:04 10° SW 12:48:50 29° W 12:52:40 10° NNW
Cosmos 2208 Rocket 4.3 12:47:02 10° NNW 12:52:14 49° WSW 12:57:26 10° S
Cosmos 2221 Rocket 3.9 12:50:01 10° NNW 12:54:21 47° W 12:58:40 10° SSW
Cosmos 2100 Rocket 4.3 12:48:24 10° S 12:54:45 79° E 13:01:07 10° N
